[[{"header":{"parameterUnit":"m.s-1","parameterCategory":1,"la1":30.2991,"la2":30.254,"lo1":-89.0895,"lo2":-89.0444,"dy":0.0017,"dx":0.0017,"nx":28,"ny":28,"refTime":"2025-08-01T21:00:00:Z","depth":0,"parameterNumber":2,"parameterNumberName":"U-component_of_WINDS"},"data":[0,0,0,0,0,0,0,0,0,0,0,0,0,0,0,0,0,0,0,0,0,0,0,0,0,0,0,0,0,0,0,0,0,0,0,0,0,0,0,0,0,0,0,0,0,0,0,0,0,0,0,0,0,0,0,0,0,0,-0.6415,-0.6416,0,-0.6445,-0.6445,-0.6445,-0.6416,-0.6414,-0.6413,-0.6412,-0.6444,-0.6445,-0.6447,0,0,0,0,0,0,0,0,0,0,0,0,0,-0.6334,-0.6335,-0.6415,-0.6416,-0.6416,-0.6445,-0.6445,-0.6445,-0.6416,-0.6414,-0.6413,-0.6412,-0.6443,-0.6445,-0.6448,0,0,0,0,0,0,0,0,0,0,0,0,0,-0.6367,-0.6336,-0.6415,-0.6405,-0.6404,-0.6445,-0.6445,-0.6446,-0.6416,-0.6414,-0.6413,-0.6411,-0.6442,-0.6445,-0.6448,-0.6501,0,0,-0.6457,-0.6458,0,0,0,0,0,0,0,0,-0.6365,-0.637,-0.6406,-0.6406,-0.6405,-0.6425,-0.6428,-0.6464,-0.6417,-0.6412,-0.6412,-0.641,-0.6439,-0.6442,-0.6451,-0.6502,-0.6504,-0.6457,-0.6459,-0.646,-0.6461,0,0,0,0,0,0,0,-0.6363,-0.6368,-0.6427,-0.6406,-0.6406,-0.6399,-0.6401,-0.6435,-0.6435,-0.6412,-0.641,-0.6414,-0.6438,-0.6449,-0.6452,-0.6504,-0.6457,-0.6459,-0.6461,-0.6462,-0.6599,-0.6601,0,0,0,0,0,0,-0.6362,-0.6367,-0.6426,-0.6428,-0.638,-0.6401,-0.6404,-0.642,-0.6434,-0.6435,-0.6415,-0.6412,-0.6444,-0.6448,-0.6453,-0.6515,-0.646,-0.6463,-0.6464,-0.6597,-0.6599,-0.6602,0,0,0,0,0,0,-0.636,-0.6367,-0.6425,-0.6397,-0.6404,-0.6405,-0.6422,-0.6422,-0.6432,-0.6437,-0.6437,-0.6426,-0.6443,-0.6449,-0.6489,-0.6516,-0.6464,-0.6467,-0.6595,-0.6598,-0.6601,-0.6641,0,0,0,0,0,0,-0.6358,-0.6367,-0.6387,-0.6397,-0.6405,-0.6461,-0.6424,-0.6423,-0.6437,-0.6433,-0.6447,-0.6447,-0.6442,-0.6485,-0.6492,-0.6519,-0.6469,-0.6593,-0.6596,-0.66,-0.6637,-0.6645,-0.6652,0,0,0,0,0,-0.6355,-0.6398,-0.6388,-0.6395,-0.643,-0.6462,-0.6467,-0.646,-0.6439,-0.6459,-0.6462,-0.6447,-0.6512,-0.6489,-0.6497,-0.6525,-0.6591,-0.6595,-0.6599,-0.6634,-0.6644,-0.6651,0,0,0,0,0,0,-0.6391,-0.6399,-0.6388,-0.6436,-0.6448,-0.6457,-0.6483,-0.647,-0.6489,-0.6485,-0.6476,-0.6479,-0.6522,-0.6527,-0.6502,-0.6577,-0.6548,-0.6554,-0.6572,-0.6581,-0.6588,-0.6586,-0.6471,0,0,0,0,0,-0.6404,-0.6429,-0.6435,-0.6476,-0.6483,-0.6482,-0.6495,-0.6489,-0.6502,-0.6507,-0.6513,-0.6526,-0.655,-0.6565,-0.6587,-0.6638,-0.664,-0.6661,-0.6668,-0.6674,-0.668,-0.6706,-0.6716,-0.6616,-0.6616,-0.6615,0,0,-0.6433,-0.644,-0.6457,-0.6484,-0.6493,-0.6519,-0.6487,-0.6516,-0.6535,-0.6512,-0.655,-0.6554,-0.6569,-0.6614,-0.6634,-0.662,-0.6708,-0.6679,-0.6684,-0.6687,-0.6712,-0.6721,-0.673,-0.6618,-0.6618,-0.6617,0,0,-0.6497,-0.6505,-0.6541,-0.655,-0.6564,-0.6562,-0.6571,-0.6581,-0.6583,-0.6621,-0.6603,-0.6626,-0.6667,-0.6677,-0.6688,-0.6755,-0.6742,-0.6763,-0.68,-0.6826,-0.6834,-0.6841,-0.6865,-0.6874,-0.6768,-0.6768,-0.6768,0,-0.6531,-0.6569,-0.656,-0.659,-0.6603,-0.6582,-0.6617,-0.6627,-0.6647,-0.6656,-0.664,-0.6689,-0.6698,-0.6745,-0.6761,-0.6771,-0.678,-0.6762,-0.6834,-0.6841,-0.6847,-0.687,-0.6879,-0.6771,-0.677,-0.677,-0.677,0,-0.661,-0.6637,-0.6663,-0.6683,-0.6698,-0.6731,-0.6726,-0.6743,-0.6734,-0.6735,-0.6773,-0.6782,-0.6805,-0.6816,-0.6808,-0.6862,-0.6852,-0.6835,-0.6806,-0.6859,-0.6881,-0.6889,-0.6774,-0.6773,-0.6773,-0.6772,0,0,-0.67,-0.6712,-0.6723,-0.6731,-0.6744,-0.6764,-0.6796,-0.6817,-0.6832,-0.6846,-0.6872,-0.6906,-0.689,-0.6902,-0.6895,-0.6918,-0.6971,-0.6898,-0.6898,-0.6911,-0.703,-0.7044,-0.7054,-0.6961,-0.6963,-0.6964,-0.7029,0,-0.6765,-0.6819,-0.6811,-0.6863,-0.6888,-0.6867,-0.6895,-0.6906,-0.6906,-0.6927,-0.6928,-0.6952,-0.6929,-0.6936,-0.6958,-0.696,-0.6995,-0.6955,-0.6986,-0.6987,-0.6984,-0.7065,-0.708,-0.7141,-0.7037,-0.7039,-0.704,0,-0.6848,-0.6865,-0.692,-0.6928,-0.6938,-0.6963,-0.6981,-0.7001,-0.7013,-0.7012,-0.7025,-0.7014,-0.7045,-0.7015,-0.7058,-0.7031,-0.7043,-0.7046,-0.7048,-0.7051,-0.7017,-0.7071,-0.716,-0.7169,-0.7053,-0.7052,-0.7051,0,-0.6909,-0.6945,-0.6982,-0.6989,-0.7,-0.7018,-0.7023,-0.7033,-0.7046,-0.7062,-0.7071,-0.7091,-0.7102,-0.7118,-0.7113,-0.7091,-0.7157,-0.7126,-0.7157,-0.7157,-0.7172,-0.7172,-0.7265,-0.7179,-0.7179,-0.7179,-0.7179,0,-0.6982,-0.7017,-0.7009,-0.7032,-0.7069,-0.7059,-0.7097,-0.71,-0.7108,-0.7131,-0.7115,-0.7137,-0.7128,-0.715,-0.7146,-0.7182,-0.7187,-0.7187,-0.7186,-0.7189,-0.7189,-0.7197,-0.7193,-0.7181,-0.7181,-0.718,-0.718,0,-0.7057,-0.7052,-0.7092,-0.7098,-0.71,-0.7128,-0.7133,-0.7155,-0.7153,-0.7183,-0.7189,-0.7188,-0.7212,-0.7208,-0.7235,-0.7232,-0.7277,-0.7271,-0.7273,-0.7272,-0.7304,-0.7301,-0.7406,-0.7419,-0.7325,-0.7325,-0.7326,0,-0.7104,-0.713,-0.7139,-0.7153,-0.7159,-0.7182,-0.7195,-0.7186,-0.7201,-0.7215,-0.7235,-0.7257,-0.7275,-0.7315,-0.7317,-0.7337,-0.7331,-0.7366,-0.7334,-0.7336,-0.7332,-0.7331,-0.7333,-0.7373,-0.7374,-0.7375,-0.7376,0,-0.719,-0.7186,-0.7205,-0.7224,-0.724,-0.7254,-0.7267,-0.728,-0.7272,-0.7289,-0.7313,-0.7326,-0.7353,-0.7376,-0.7395,-0.7401,-0.7387,-0.7386,-0.7394,-0.7398,-0.7399,-0.7399,-0.7291,-0.7384,-0.7383,-0.7382,-0.7382,-0.7381,-0.7252,-0.7274,-0.7283,-0.7305,-0.7314,-0.7326,-0.7346,-0.7347,-0.7367,-0.7388,-0.7381,-0.7409,-0.7419,-0.7443,-0.745,-0.7472,-0.7459,-0.7471,-0.7474,-0.7477,-0.7481,-0.7394,-0.7475,-0.7475,-0.7475,-0.7474,-0.7474,0,-0.7337,-0.7341,-0.7362,-0.738,-0.7397,-0.7381,-0.7394,-0.741,-0.7434,-0.7445,-0.7462,-0.749,-0.7511,-0.7514,-0.7535,-0.7551,-0.7546,-0.7557,-0.7556,-0.7558,-0.7491,-0.7482,-0.7561,-0.7561,-0.7561,-0.7561,-0.7561,-0.7561,-0.7383,-0.7419,-0.7416,-0.7456,-0.746,-0.7487,-0.7495,-0.7506,-0.7514,-0.7546,-0.7563,-0.7565,-0.7572,-0.7592,-0.7612,-0.7612,-0.762,-0.7634,-0.7632,-0.7571,-0.7562,-0.7554,-0.7545,-0.7636,-0.7636,-0.7697,-0.7697,-0.7698]},{"header":{"parameterUnit":"m.s-1","parameterCategory":1,"la1":30.2991,"la2":30.254,"lo1":-89.0895,"lo2":-89.0444,"dy":0.0017,"dx":0.0017,"nx":28,"ny":28,"refTime":"2025-08-01T21:00:00:Z","depth":0,"parameterNumber":3,"parameterNumberName":"V-component_of_WINDS"},"data":[0,0,0,0,0,0,0,0,0,0,0,0,0,0,0,0,0,0,0,0,0,0,0,0,0,0,0,0,0,0,0,0,0,0,0,0,0,0,0,0,0,0,0,0,0,0,0,0,0,0,0,0,0,0,0,0,0,0,-0.8901,-0.89,0,-0.8808,-0.8807,-0.8806,-0.878,-0.8781,-0.8781,-0.8782,-0.8685,-0.8682,-0.8679,0,0,0,0,0,0,0,0,0,0,0,0,0,-0.9057,-0.9054,-0.8902,-0.89,-0.8899,-0.8808,-0.8807,-0.8805,-0.878,-0.8781,-0.8782,-0.8782,-0.8686,-0.8683,-0.8679,0,0,0,0,0,0,0,0,0,0,0,0,0,-0.8979,-0.9054,-0.8902,-0.8876,-0.8872,-0.8808,-0.8807,-0.8805,-0.878,-0.8781,-0.8782,-0.8783,-0.8687,-0.8683,-0.8678,-0.8633,0,0,-0.8664,-0.8662,0,0,0,0,0,0,0,0,-0.8984,-0.8973,-0.8881,-0.8877,-0.8874,-0.8807,-0.8826,-0.8747,-0.878,-0.8815,-0.8782,-0.8783,-0.8725,-0.8717,-0.8698,-0.8629,-0.8624,-0.8664,-0.8661,-0.8659,-0.8658,0,0,0,0,0,0,0,-0.8989,-0.8977,-0.8864,-0.8879,-0.8875,-0.8868,-0.8858,-0.8811,-0.8766,-0.8812,-0.881,-0.8799,-0.8723,-0.8702,-0.8695,-0.8623,-0.8664,-0.866,-0.8657,-0.8655,-0.851,-0.8509,0,0,0,0,0,0,-0.8999,-0.8982,-0.8867,-0.8862,-0.8932,-0.8865,-0.8853,-0.8827,-0.8767,-0.8759,-0.8799,-0.8799,-0.871,-0.8701,-0.8692,-0.8634,-0.8659,-0.8655,-0.8652,-0.8512,-0.851,-0.8509,0,0,0,0,0,0,-0.9003,-0.8989,-0.8871,-0.8921,-0.8906,-0.8861,-0.8832,-0.8825,-0.8804,-0.8757,-0.8749,-0.8786,-0.871,-0.8698,-0.8648,-0.863,-0.8653,-0.8648,-0.8513,-0.8511,-0.851,-0.8518,0,0,0,0,0,0,-0.9007,-0.8991,-0.8973,-0.8921,-0.8903,-0.8829,-0.8831,-0.8823,-0.8796,-0.8795,-0.8742,-0.8735,-0.871,-0.8655,-0.8643,-0.8624,-0.8645,-0.8514,-0.8512,-0.851,-0.8519,-0.8517,-0.8515,0,0,0,0,0,-0.9013,-0.898,-0.8973,-0.8959,-0.8881,-0.8828,-0.8818,-0.879,-0.8795,-0.8777,-0.8746,-0.8736,-0.8634,-0.865,-0.8636,-0.8616,-0.8515,-0.8513,-0.851,-0.852,-0.8517,-0.8515,0,0,0,0,0,0,-0.9031,-0.8972,-0.8964,-0.8913,-0.8876,-0.8824,-0.88,-0.8789,-0.8749,-0.875,-0.8717,-0.8705,-0.8656,-0.8631,-0.865,-0.8568,-0.8574,-0.8569,-0.8586,-0.8584,-0.8582,-0.8588,-0.8641,0,0,0,0,0,-0.9029,-0.8992,-0.8942,-0.8902,-0.8884,-0.8845,-0.8821,-0.8803,-0.8763,-0.8747,-0.8713,-0.8675,-0.8633,-0.8607,-0.8567,-0.8516,-0.8503,-0.8495,-0.8493,-0.8491,-0.8487,-0.8457,-0.8452,-0.8501,-0.8501,-0.8501,0,0,-0.9025,-0.8988,-0.8966,-0.8905,-0.8874,-0.8835,-0.8832,-0.8792,-0.8762,-0.8741,-0.8691,-0.8664,-0.8619,-0.8568,-0.8543,-0.8545,-0.8471,-0.8488,-0.8488,-0.8484,-0.8454,-0.8449,-0.8445,-0.85,-0.85,-0.85,0,0,-0.8997,-0.8966,-0.8928,-0.8897,-0.885,-0.8825,-0.8816,-0.8765,-0.8747,-0.8696,-0.8679,-0.8644,-0.8574,-0.8542,-0.8517,-0.8476,-0.8464,-0.8463,-0.8453,-0.8424,-0.842,-0.8416,-0.84,-0.8395,-0.8459,-0.8459,-0.8459,0,-0.8997,-0.8939,-0.891,-0.887,-0.8843,-0.8822,-0.8783,-0.8754,-0.8697,-0.8678,-0.8681,-0.8593,-0.8561,-0.8501,-0.8491,-0.8471,-0.8459,-0.8469,-0.8423,-0.8419,-0.8415,-0.84,-0.8394,-0.846,-0.846,-0.846,-0.846,0,-0.8941,-0.89,-0.8875,-0.882,-0.879,-0.8751,-0.8716,-0.8689,-0.8674,-0.8648,-0.8595,-0.8556,-0.8507,-0.8492,-0.8477,-0.8429,-0.8432,-0.8429,-0.8435,-0.8411,-0.8396,-0.839,-0.846,-0.846,-0.846,-0.846,0,0,-0.8922,-0.8851,-0.8842,-0.8816,-0.8762,-0.873,-0.869,-0.8642,-0.8619,-0.858,-0.8544,-0.8485,-0.8482,-0.8453,-0.8434,-0.8409,-0.8377,-0.8409,-0.8407,-0.8404,-0.8322,-0.8324,-0.8317,-0.837,-0.8369,-0.8368,-0.8325,0,-0.8886,-0.8813,-0.8786,-0.8726,-0.8687,-0.8667,-0.8631,-0.8594,-0.8568,-0.8532,-0.8503,-0.8462,-0.8462,-0.8444,-0.8418,-0.8387,-0.836,-0.839,-0.8336,-0.8334,-0.8347,-0.831,-0.8312,-0.8274,-0.832,-0.8318,-0.8318,0,-0.8835,-0.8795,-0.8731,-0.8681,-0.8664,-0.8632,-0.8586,-0.8551,-0.8508,-0.8491,-0.8459,-0.8441,-0.8397,-0.8406,-0.8344,-0.8365,-0.8341,-0.8323,-0.832,-0.8314,-0.8324,-0.8301,-0.8261,-0.8255,-0.8308,-0.8309,-0.831,0,-0.8827,-0.8757,-0.8709,-0.8687,-0.8628,-0.8606,-0.8581,-0.8538,-0.8511,-0.847,-0.8452,-0.8407,-0.8382,-0.8347,-0.8317,-0.8326,-0.8258,-0.8264,-0.8242,-0.8242,-0.8228,-0.8229,-0.8182,-0.8214,-0.8214,-0.8214,-0.8214,0,-0.8789,-0.8751,-0.8704,-0.8674,-0.863,-0.8599,-0.8556,-0.8529,-0.8491,-0.8456,-0.8435,-0.8402,-0.8365,-0.8328,-0.8304,-0.8256,-0.8245,-0.823,-0.8224,-0.8231,-0.8233,-0.8215,-0.8216,-0.8213,-0.8213,-0.8213,-0.8214,0,-0.8772,-0.8739,-0.8685,-0.8634,-0.862,-0.8589,-0.8544,-0.8515,-0.8488,-0.8443,-0.8431,-0.8389,-0.8343,-0.831,-0.8252,-0.8236,-0.8184,-0.8178,-0.8198,-0.8195,-0.8174,-0.8176,-0.8114,-0.8103,-0.8143,-0.8143,-0.8142,0,-0.875,-0.872,-0.8664,-0.8639,-0.8613,-0.8573,-0.8544,-0.8512,-0.8484,-0.8432,-0.8408,-0.8361,-0.8322,-0.8249,-0.8214,-0.8168,-0.8161,-0.8142,-0.8154,-0.8162,-0.816,-0.8161,-0.8158,-0.814,-0.814,-0.814,-0.814,0,-0.8714,-0.8699,-0.8659,-0.8613,-0.858,-0.8542,-0.8504,-0.8485,-0.8446,-0.8414,-0.8367,-0.8337,-0.8276,-0.8229,-0.818,-0.8153,-0.8139,-0.8136,-0.8128,-0.8135,-0.8147,-0.814,-0.8193,-0.8138,-0.8138,-0.8138,-0.8138,-0.8138,-0.8693,-0.8665,-0.8621,-0.8577,-0.8545,-0.8509,-0.8478,-0.8448,-0.8408,-0.8356,-0.834,-0.829,-0.8248,-0.818,-0.8153,-0.8113,-0.8114,-0.8103,-0.81,-0.8098,-0.8098,-0.8154,-0.8105,-0.8105,-0.8105,-0.8105,-0.8105,0,-0.8655,-0.8626,-0.8586,-0.8533,-0.8498,-0.8488,-0.8445,-0.8416,-0.8373,-0.8335,-0.8296,-0.8241,-0.8195,-0.8156,-0.8108,-0.8085,-0.8077,-0.8073,-0.8074,-0.8068,-0.81,-0.8111,-0.808,-0.808,-0.808,-0.808,-0.808,-0.808,-0.8631,-0.8582,-0.8562,-0.8497,-0.8467,-0.8419,-0.8395,-0.8362,-0.8331,-0.8271,-0.8232,-0.8207,-0.8167,-0.8117,-0.8074,-0.8064,-0.8047,-0.8044,-0.8032,-0.8063,-0.8066,-0.8069,-0.8079,-0.8041,-0.8041,-0.8003,-0.8002,-0.8002]}]]